7 * 24
多渠道服务支持
STARLINK-32414 是 SpaceX Starlink 卫星互联网项目中的一颗低轨卫星,属于第三代星链卫星(Starlink v1.5 或后续版本)。该卫星由猎鹰9号火箭发射入轨,旨在为全球用户提供高速、低延迟的宽带互联网服务。它运行在约 550 公里的高度,配备先进推进系统和激光通信设备,以提升网络性能和卫星间通信能力。STARLINK-32414 的部署有助于扩大 Starlink 在偏远和农村地区的网络覆盖,支持通信、应急响应和商业应用。
美国
(US)
| 数据来源 | 国际轨道数据 |
| 星历时间: | 2025-12-19T22:42:29+0800 19小时前 查看轨道信息 |
| 半长轴: | 6853.385km |
| 偏心率: | 0.0001018 |
| 轨道倾角: | 53.160° |
| 近地点辐角 | 87.229° |
| 升交点赤经 | 103.163° |
| 平近点角 | 272.883° |
| 近地点: | 474.55km |
| 远地点: | 475.946km |
| 周期: | 94.106分钟 |
| 每日圈数: | 15.301891 |